Location: Dodgeville, WI 53533, USA
(43.0344°N, 90.0900°W)
Time: 20:33:57
(UTC-06:00)

BlueWalker 3 - Visible Passes

Search period start: 28 November 2023 00:00
Search period end: 08 December 2023 00:00
Orbit: 489 x 504 km, 53.2° (Epoch: 28 November)

Date Brightness Start Highest point End Pass type
(mag) Time Alt. Az. Time Alt. Az. Time Alt. Az.
28 Nov 5.0 04:12:36 10° NE 04:12:36 10° NE 04:12:38 10° NE visible
28 Nov 3.5 05:47:09 16° NNW 05:49:20 26° NNE 05:52:36 10° ENE visible
29 Nov 3.5 05:25:33 22° N 05:26:45 26° NNE 05:30:02 10° ENE visible
30 Nov 3.5 05:03:57 26° NNE 05:04:10 26° NNE 05:07:27 10° ENE visible
01 Dec 3.9 04:42:23 24° NE 04:42:23 24° NE 04:44:50 10° ENE visible
01 Dec 1.9 06:16:57 13° WNW 06:20:17 77° SW 06:24:05 10° SE visible
02 Dec 4.5 04:20:50 18° ENE 04:20:50 18° ENE 04:22:13 10° ENE visible
02 Dec 1.8 05:55:24 23° WNW 05:57:40 78° SW 06:01:28 10° SE visible
03 Dec 5.2 03:59:20 11° ENE 03:59:20 11° ENE 03:59:34 10° ENE visible
03 Dec 1.8 05:33:54 44° WNW 05:35:03 79° SW 05:38:50 10° SE visible
04 Dec 1.8 05:12:27 80° SSW 05:12:27 80° SSW 05:16:12 10° SE visible
05 Dec 3.1 04:51:03 39° SE 04:51:03 39° SE 04:53:32 10° SE visible
05 Dec 4.2 06:26:17 10° WSW 06:27:29 11° SW 06:28:42 10° SW visible
06 Dec 4.4 04:29:42 19° SE 04:29:42 19° SE 04:30:51 10° SE visible
06 Dec 4.1 06:04:17 11° WSW 06:04:49 11° SW 06:06:07 10° SW visible
07 Dec 4.3 05:43:00 11° SW 05:43:00 11° SW 05:43:29 10° SSW visible
